Miscellaneous Local Product
Issued by NWS North Platte, NE

Home | Current Version | Previous Version | Text Only | Print | Product List | Glossary On
Versions: 1 2 3 4 5 6 7 8 9 10 11 12 13 14 15 16 17 18 19 20 21 22 23 24 25 26 27 28 29 30 31 32 33 34 35 36 37 38 39 40 41 42 43 44 45 46 47 48 49 50
000
AXUS43 KLBF 161010
MISLBF


WESTERN AND NORTH CENTRAL NEBRASKA HOURLY WEATHER ROUNDUP
NATIONAL WEATHER SERVICE NORTH PLATTE NE
500 AM CDT WED APR 16 2014

***STATIONS NOT REPORTING VARIABLES SUCH AS SKY/WEATHER OR
PRESSURE ARE PROVIDED BY THE NEBRASKA DEPARTMENT OF
ROADS...RAWS...AND APRS NETWORKS...AND ARE NOT UNDER
NATIONAL WEATHER SERVICE QUALITY CONTROL***

...OBSERVATIONS IN AND NEAR THE EASTERN PANHANDLE OF NEBRASKA...

CITY           SKY/WX    TMP DP  RH WIND       PRES   REMARKS
PINE RIDGE     LGT RAIN  40  38  93 NW9       29.64R WCI  34
CHADRON        LGT RAIN  41  38  89 NW15      29.68R FOG
ALLIANCE       MOCLDY    43  35  73 NW18      29.65R
SIDNEY         CLOUDY    43  32  65 NW28G40   29.69R
WHITECLAY        N/A     38  35  90 NW14        N/A  WCI  30
CRESCENT LAKE    N/A     46  32  58 NW17G26     N/A
LISCO            N/A     48  31  51 W26         N/A
BIG SPRINGS      N/A     51  35  55 NW5         N/A
LEWELLEN         N/A     53  22  30 W28         N/A
$$

...OBSERVATIONS IN SOUTHWEST NEBRASKA AND FAR NORTHEAST COLORADO...

CITY           SKY/WX    TMP DP  RH WIND       PRES   REMARKS
WRAY           FAIR      46  33  61 NW16G22   29.65R
HOLYOKE        FAIR      52  32  46 NW18G29   29.65S
IMPERIAL       PTCLDY    43  30  60 NW12      29.62R
OGALLALA       MOCLDY    54  28  36 W16G24    29.60R
NORTH PLATTE   MOCLDY    40  26  57 SE3       29.59F
MCCOOK         MOCLDY    44  23  43 SW10      29.60R
LEXINGTON      MOCLDY    45  25  44 W6G17     29.61R
PAXTON           N/A     49  31  50 CALM        N/A
SUTHERLAND       N/A     42  23  47 W6          N/A
MEDICINE CREEK   N/A     46  26  46 CALM        N/A
GOTHENBURG       N/A     47  27  46 CALM        N/A
CALLAWAY         N/A     44  30  58 W5          N/A
$$

...OBSERVATIONS IN NORTH CENTRAL NEBRASKA...

CITY           SKY/WX    TMP DP  RH WIND       PRES   REMARKS
VALENTINE      CLOUDY    50  30  46 NW24G31   29.52R
THEDFORD       CLOUDY    58  31  36 W13G21    29.55S
AINSWORTH      CLOUDY    57  32  38 W22G36    29.53R
O`NEILL        CLOUDY    49  24  38 S14       29.55S
ORD            MOCLDY    46  25  43 SW8       29.62R
BROKEN BOW     CLOUDY    43  27  53 SW9       29.59R
BROWNLEE         N/A     54  28  37 NW15        N/A
SPRINGVIEW       N/A     59  37  43 SW12G18     N/A
DUNNING          N/A     52  29  40 W5          N/A
BREWSTER         N/A     49  28  44 SW8         N/A
ROSE             N/A     48  32  53 SE7         N/A
NEWPORT          N/A     50  32  50 S14         N/A
COMSTOCK         N/A     48  26  42 SW12        N/A
CHAMBERS         N/A     46  24  42 S8G17       N/A
EWING            N/A     47  25  42 SW8         N/A
$$

...SOME WEATHER OBSERVATIONS FROM AROUND THE REGION...

CITY           SKY/WX    TMP DP  RH WIND       PRES   REMARKS
DENVER         PTCLDY    39  31  72 N14       29.73R WCI  31
CHEYENNE       MOCLDY    35  26  69 W17G24    29.76R WCI  25
SCOTTSBLUFF    MOCLDY    42  34  73 NW21G31   29.72R
RAPID CITY     CLOUDY    39  36  89 N14       29.64R WCI  31
PIERRE         CLOUDY    36  26  67 NE17      29.59R WCI  26
WINNER         MOCLDY    51  27  39 W18G24    29.50R
SIOUX FALLS    CLOUDY    42  29  59 SE14      29.63F
OMAHA          MOCLDY    45  29  53 S22G31    29.77F
GRAND ISLAND   CLOUDY    47  24  40 S22G30    29.63F
KANSAS CITY    PTCLDY    45  24  43 S18       29.94F
WICHITA        PTCLDY    47  23  38 S22G35    29.86F
HAYS           CLEAR     45  18  33 S14       29.69F
LIBERAL        CLEAR     48  14  25 S20G29    29.71S
GOODLAND       CLEAR     43  28  55 NW17      29.66R
$$



USA.gov is the U.S. government's official web portal to all federal, state and local government web resources and services.